This is the latest recevied weather packets stored in our database for station/object KK6LVQ-13. If no packets are shown the sender has not sent any weather packets the latest 10 day(s).
| Time | Temp. | Humidity | Pressure | Rain* | Wind** | Luminosity | Snow |
|---|---|---|---|---|---|---|---|
| 1778188985 | 25° C | 51% | 1021.4 hPa | 0 mm | - | 758 W/m² | - |
| 1778188681 | 25° C | 49% | 1021.6 hPa | 0 mm | - | 764 W/m² | - |
| 1778188378 | 25° C | 50% | 1021.5 hPa | 0 mm | - | 768 W/m² | - |
| 1778188075 | 25° C | 49% | 1021.9 hPa | 0 mm | - | 774 W/m² | - |
| 1778187772 | 25° C | 52% | 1021.9 hPa | 0 mm | - | 780 W/m² | - |
| 1778187468 | 25° C | 50% | 1021.8 hPa | 0 mm | - | 781 W/m² | - |
| 1778187165 | 24.44° C | 52% | 1021.8 hPa | 0 mm | - | 781 W/m² | - |
| 1778186861 | 25° C | 50% | 1021.9 hPa | 0 mm | - | 786 W/m² | - |
| 1778186559 | 24.44° C | 50% | 1021.8 hPa | 0 mm | - | 789 W/m² | - |
| 1778186257 | 25° C | 51% | 1022.2 hPa | 0 mm | - | 792 W/m² | - |
| 1778185954 | 24.44° C | 49% | 1022 hPa | 0 mm | - | 794 W/m² | - |
| 1778185649 | 24.44° C | 53% | 1022.2 hPa | 0 mm | - | 796 W/m² | - |
| 1778185341 | 23.89° C | 55% | 1022.1 hPa | 0 mm | - | 798 W/m² | - |
| 1778185035 | 23.89° C | 54% | 1022.1 hPa | 0 mm | - | 799 W/m² | - |
| 1778184733 | 23.89° C | 57% | 1022 hPa | 0 mm | - | 798 W/m² | - |
| 1778184429 | 23.89° C | 55% | 1022.3 hPa | 0 mm | - | 799 W/m² | - |
| 1778184125 | 23.33° C | 55% | 1022.6 hPa | 0 mm | - | 798 W/m² | - |
| 1778183821 | 23.33° C | 58% | 1022.6 hPa | 0 mm | - | 796 W/m² | - |
| 1778183518 | 23.33° C | 56% | 1022.7 hPa | 0 mm | - | 795 W/m² | - |
| 1778183215 | 22.78° C | 59% | 1022.4 hPa | 0 mm | - | 793 W/m² | - |
| 1778182911 | 22.78° C | 59% | 1022.6 hPa | 0 mm | - | 791 W/m² | - |
| 1778182608 | 22.22° C | 61% | 1022.8 hPa | 0 mm | - | 787 W/m² | - |
| 1778182305 | 22.22° C | 60% | 1022.7 hPa | 0 mm | - | 781 W/m² | - |
| 1778182001 | 21.67° C | 62% | 1022.9 hPa | 0 mm | - | 781 W/m² | - |
| 1778181698 | 21.67° C | 62% | 1023 hPa | 0 mm | - | 781 W/m² | - |
* Rain latest hour (hover to see other rain measurements)
** Current wind speed in m/s (hover to see current wind gust speed)